Location: Philipsburg
(46.3359°N, 113.2993°W)
Time: 12:49:07
(UTC+00:00)

Tiangong - Visible Passes

Search period start: 22 January 2022 00:00
Search period end: 01 February 2022 00:00
Orbit: 383 x 386 km, 41.5° (Epoch: 21 January)

Date Brightness Start Highest point End Pass type
(mag) Time Alt. Az. Time Alt. Az. Time Alt. Az.
28 Jan 3.4 02:04:03 10° S 02:05:41 13° SSE 02:05:48 13° SSE visible
29 Jan 3.2 02:39:37 10° SW 02:41:10 20° SSW 02:41:10 20° SSW visible
30 Jan 3.1 01:40:17 10° SSW 01:42:36 19° SSE 01:44:15 13° ESE visible
30 Jan 4.3 03:16:05 10° WSW 03:16:28 13° WSW 03:16:28 13° WSW visible
31 Jan 2.3 02:16:23 10° SW 02:19:13 30° S 02:19:30 29° SSE visible
